• In Netherlands
  • List of Countries
  • For 7 days
  • Water Temperature
  • Satellite Maps
  • Weather Map
  • Weather Widgets
  • user-avatar
    Login

    Hourly Weather Sinemorec

    Today, 26 April, Wednesday

    Time Temperature Precipitation Wind Pressure Humidity
    00:00 +5°C° 0 mm 3 mps 763 mmHg 74%
    01:00 +5°C° 0 mm 3 mps 763 mmHg 73%
    02:00 +5°C° 0 mm 2 mps 763 mmHg 71%
    03:00 +5°C° 0 mm 2 mps 763 mmHg 70%
    04:00 +6°C° 0 mm 1 mps 763 mmHg 69%
    05:00 +6°C° 0 mm 1 mps 763 mmHg 68%
    06:00 +9°C° 0 mm 1 mps 763 mmHg 62%
    07:00 +12°C° 0 mm 1 mps 763 mmHg 56%
    08:00 +15°C° 0 mm 2 mps 763 mmHg 52%
    09:00 +16°C° 0 mm 2 mps 763 mmHg 50%
    10:00 +17°C° 0 mm 3 mps 763 mmHg 48%
    11:00 +19°C° 0 mm 3 mps 763 mmHg 47%
    12:00 +19°C° 0 mm 3 mps 763 mmHg 47%
    13:00 +20°C° 0 mm 3 mps 762 mmHg 48%
    14:00 +20°C° 0 mm 3 mps 762 mmHg 48%
    15:00 +20°C° 0 mm 3 mps 762 mmHg 52%
    16:00 +19°C° 0 mm 3 mps 762 mmHg 55%
    17:00 +19°C° 0 mm 4 mps 761 mmHg 59%
    18:00 +17°C° 0 mm 3 mps 762 mmHg 64%
    19:00 +13°C° 0 mm 3 mps 762 mmHg 69%
    20:00 +11°C° 0 mm 3 mps 762 mmHg 75%
    21:00 +10°C° 0 mm 3 mps 762 mmHg 74%
    22:00 +10°C° 0 mm 3 mps 762 mmHg 74%
    23:00 +10°C° 0 mm 3 mps 762 mmHg 74%

    Tomorrow, 27 April, Thursday

    Time Temperature Precipitation Wind Pressure Humidity
    00:00 +9°C° 0 mm 2 mps 762 mmHg 74%
    01:00 +9°C° 0 mm 2 mps 762 mmHg 73%
    02:00 +9°C° 0 mm 2 mps 761 mmHg 73%
    03:00 +9°C° 0 mm 2 mps 761 mmHg 73%
    04:00 +8°C° 0 mm 2 mps 761 mmHg 73%
    05:00 +9°C° 0 mm 1 mps 761 mmHg 73%
    06:00 +12°C° 0 mm 2 mps 761 mmHg 66%
    07:00 +15°C° 0 mm 2 mps 761 mmHg 59%
    08:00 +18°C° 0 mm 2 mps 761 mmHg 53%
    09:00 +19°C° 0 mm 2 mps 761 mmHg 51%
    10:00 +20°C° 0 mm 2 mps 761 mmHg 49%
    11:00 +21°C° 0 mm 3 mps 762 mmHg 47%
    12:00 +22°C° 0 mm 3 mps 761 mmHg 46%
    13:00 +22°C° 0 mm 3 mps 761 mmHg 46%
    14:00 +24°C° 0 mm 3 mps 761 mmHg 46%
    15:00 +22°C° 0 mm 3 mps 761 mmHg 50%
    16:00 +21°C° 0 mm 3 mps 761 mmHg 53%
    17:00 +20°C° 0 mm 4 mps 760 mmHg 57%
    18:00 +18°C° 0 mm 3 mps 760 mmHg 62%
    19:00 +16°C° 0 mm 3 mps 761 mmHg 67%
    20:00 +12°C° 0 mm 3 mps 761 mmHg 72%
    21:00 +12°C° 0 mm 3 mps 761 mmHg 71%
    22:00 +11°C° 0 mm 3 mps 761 mmHg 71%
    23:00 +11°C° 0 mm 3 mps 761 mmHg 71%

    Day after tomorrow, 28 April, Friday

    Time Temperature Precipitation Wind Pressure Humidity
    00:00 +10°C° 0 mm 2 mps 761 mmHg 71%
    01:00 +10°C° 0 mm 2 mps 761 mmHg 71%
    02:00 +10°C° 0 mm 2 mps 760 mmHg 71%
    03:00 +9°C° 0 mm 2 mps 760 mmHg 71%
    04:00 +9°C° 0 mm 2 mps 760 mmHg 71%
    05:00 +9°C° 0 mm 2 mps 760 mmHg 71%
    06:00 +13°C° 0 mm 2 mps 760 mmHg 64%
    07:00 +16°C° 0 mm 2 mps 760 mmHg 57%
    08:00 +19°C° 0 mm 2 mps 760 mmHg 50%
    09:00 +20°C° 0 mm 2 mps 760 mmHg 48%
    10:00 +21°C° 0 mm 3 mps 760 mmHg 47%
    11:00 +24°C° 0 mm 3 mps 760 mmHg 45%
    12:00 +24°C° 0 mm 3 mps 760 mmHg 45%
    13:00 +23°C° 0 mm 4 mps 759 mmHg 45%
    14:00 +25°C° 0 mm 4 mps 759 mmHg 46%
    15:00 +23°C° 0 mm 4 mps 759 mmHg 49%
    16:00 +22°C° 0 mm 4 mps 758 mmHg 53%
    17:00 +22°C° 0 mm 4 mps 758 mmHg 57%
    18:00 +19°C° 0 mm 4 mps 758 mmHg 61%
    19:00 +17°C° 0 mm 4 mps 758 mmHg 65%
    20:00 +13°C° 0 mm 4 mps 758 mmHg 69%
    21:00 +13°C° 0 mm 3 mps 758 mmHg 69%
    22:00 +13°C° 0 mm 3 mps 758 mmHg 68%
    23:00 +12°C° 0 mm 3 mps 758 mmHg 68%

    29 April, Saturday

    Time Temperature Precipitation Wind Pressure Humidity
    00:00 +12°C° 0 mm 3 mps 758 mmHg 67%
    01:00 +12°C° 0 mm 3 mps 758 mmHg 66%
    02:00 +12°C° 0 mm 3 mps 757 mmHg 65%
    03:00 +12°C° 0 mm 3 mps 757 mmHg 62%
    04:00 +12°C° 0 mm 3 mps 757 mmHg 60%
    05:00 +12°C° 0 mm 3 mps 757 mmHg 57%
    06:00 +14°C° 0 mm 3 mps 757 mmHg 55%
    07:00 +17°C° 0 mm 3 mps 757 mmHg 53%
    08:00 +19°C° 0 mm 3 mps 757 mmHg 51%
    09:00 +21°C° 0 mm 3 mps 757 mmHg 48%
    10:00 +24°C° 0 mm 3 mps 757 mmHg 46%
    11:00 +25°C° 0 mm 3 mps 757 mmHg 43%
    12:00 +26°C° 0 mm 3 mps 757 mmHg 43%
    13:00 +27°C° 0 mm 4 mps 756 mmHg 43%
    14:00 +27°C° 0 mm 4 mps 756 mmHg 43%
    15:00 +27°C° 0 mm 4 mps 756 mmHg 46%
    16:00 +26°C° 0 mm 4 mps 756 mmHg 50%
    17:00 +26°C° 0 mm 4 mps 755 mmHg 53%
    18:00 +22°C° 0 mm 4 mps 755 mmHg 58%
    19:00 +20°C° 0 mm 4 mps 756 mmHg 62%
    20:00 +17°C° 0 mm 4 mps 756 mmHg 67%
    21:00 +17°C° 0 mm 4 mps 756 mmHg 67%
    22:00 +15°C° 0 mm 4 mps 756 mmHg 66%
    23:00 +14°C° 0 mm 4 mps 756 mmHg 66%

    30 April, Sunday

    Time Temperature Precipitation Wind Pressure Humidity
    00:00 +14°C° 0 mm 3 mps 756 mmHg 64%
    01:00 +14°C° 0 mm 3 mps 755 mmHg 63%
    02:00 +13°C° 0 mm 3 mps 755 mmHg 61%
    03:00 +13°C° 0 mm 3 mps 755 mmHg 62%
    04:00 +14°C° 0 mm 2 mps 756 mmHg 62%
    05:00 +14°C° 0 mm 2 mps 756 mmHg 63%
    06:00 +14°C° 0 mm 3 mps 756 mmHg 62%
    07:00 +17°C° 0 mm 3 mps 757 mmHg 61%
    08:00 +19°C° 0 mm 3 mps 757 mmHg 61%
    09:00 +20°C° 0 mm 3 mps 757 mmHg 60%
    10:00 +21°C° 0 mm 4 mps 757 mmHg 60%
    11:00 +22°C° 0 mm 4 mps 758 mmHg 60%
    12:00 +22°C° 0 mm 4 mps 757 mmHg 61%
    13:00 +23°C° 0 mm 4 mps 757 mmHg 61%
    14:00 +23°C° 0 mm 4 mps 757 mmHg 62%
    15:00 +22°C° 0 mm 4 mps 757 mmHg 65%
    16:00 +22°C° 0 mm 4 mps 757 mmHg 68%
    17:00 +21°C° 0 mm 4 mps 757 mmHg 71%
    18:00 +19°C° 0 mm 3 mps 757 mmHg 76%
    19:00 +17°C° 0 mm 3 mps 758 mmHg 82%
    20:00 +14°C° 0 mm 3 mps 758 mmHg 88%
    21:00 +14°C° 0 mm 3 mps 758 mmHg 88%
    22:00 +14°C° 0 mm 3 mps 758 mmHg 88%
    23:00 +14°C° 0 mm 3 mps 758 mmHg 89%

    1 May, Monday

    Time Temperature Precipitation Wind Pressure Humidity
    00:00 +13°C° 0 mm 4 mps 758 mmHg 89%
    01:00 +13°C° 0 mm 4 mps 758 mmHg 90%
    02:00 +13°C° 0 mm 4 mps 758 mmHg 91%
    03:00 +13°C° 0 mm 4 mps 758 mmHg 91%
    04:00 +12°C° 0 mm 4 mps 758 mmHg 91%
    05:00 +12°C° 0 mm 4 mps 758 mmHg 92%
    06:00 +13°C° 0 mm 4 mps 758 mmHg 88%
    07:00 +15°C° 0 mm 5 mps 758 mmHg 85%
    08:00 +16°C° 0 mm 5 mps 758 mmHg 82%
    09:00 +17°C° 0 mm 5 mps 758 mmHg 78%
    10:00 +19°C° 0 mm 5 mps 758 mmHg 74%
    11:00 +20°C° 0 mm 6 mps 758 mmHg 70%
    12:00 +20°C° 0 mm 6 mps 758 mmHg 67%
    13:00 +20°C° 0 mm 6 mps 758 mmHg 64%
    14:00 +20°C° 0 mm 6 mps 758 mmHg 62%
    15:00 +19°C° 0 mm 5 mps 758 mmHg 64%
    16:00 +17°C° 0 mm 5 mps 758 mmHg 65%
    17:00 +16°C° 0 mm 5 mps 758 mmHg 67%
    18:00 +14°C° 0 mm 5 mps 758 mmHg 73%
    19:00 +13°C° 0 mm 4 mps 758 mmHg 80%
    20:00 +11°C° 0 mm 4 mps 758 mmHg 86%
    21:00 +11°C° 0 mm 4 mps 758 mmHg 87%
    22:00 +10°C° 0 mm 4 mps 759 mmHg 88%
    23:00 +10°C° 0 mm 4 mps 759 mmHg 89%
    Show more